Location: Home
(42.5358°N, 72.7383°W)
Time: 14:55:21
(UTC-05:00)

deb Explorer IX - Pass Details

Date: 06 December 2021
Orbit: 544 x 1082 km, 38.8° (Epoch: 16 January)

Event Time Altitude Azimuth Distance (km) Brightness Sun altitude
Rises 07:28:57 0° 204° (SSW) 3,376 ? 2.7°
Reaches altitude 10° 07:32:45 10° 181° (S) 2,313 ? 3.2°
Maximum altitude 07:35:33 14° 150° (SSE) 1,938 ? 3.7°
Drops below altitude 10° 07:38:10 10° 118° (ESE) 2,132 ? 4.1°
Sets 07:41:25 0° 93° (E) 2,942 ? 4.5°
